STARLINK-31257, 59079

Orbit data source: Space-Track

STARLINK-31257, 59079 is a payload satellite owned by SpaceX/Seattle (US) in LEO that was launched on Thu, 29 Feb 2024 UTC via an FALCON 9 launch vehicle from the Air Force Eastern Test Range (AFETR). Payload-class satellites include a variety of spacecraft equipped with specific instruments for various scientific and technological missions. These include communications satellites like Starlink; space stations such as the ISS; scientific satellites like the Hubble; Earth observation satellites from companies like Planet Labs, Umbra, and HawkEye 360; GPS; miniature CubeSats for education and research; and military/defense satellites.

Loading next visibility...
Identifier
59079, 2024-041F
Orbit
LEO
Country
Flag of USUS
Related business
Manufacturer
SpaceX/Seattle
Mission
Operational Commercial Communications
Bus & Motor
STARLINK V2M, Unknown motor
Mass
730 kg wet, ~700 kg dry
Launch date (UTC)
2024-02-29 (2 years ago)
Launch vehicle
FALCON 9
Launch site
Air Force Eastern Test Range (AFETR)
Object type
Payload
Rocket body
Debris
Shape & HBR
Box + 2 Pan, 17.7 m
Radar Cross Section
33.884 m², Large (>1 m²)

Expand to show TLE details & history
Last TLE update: 3 days ago

TLE from 3 days ago
0 STARLINK-31257
1 59079U 24041F   26170.82625534  .00001156  00000-0  51515-4 0  9996
2 59079  43.0042  93.7480 0001001 264.1432  95.9306 15.27579683129894
Epoch: 2026-06-19T19:49Z
TLE epoch observation values (Epoch: 2026-06-19T19:49:48.461Z)
Latitude
0.00001°
Longitude
-111.75357°
Altitude
482.897 km
Speed
7.626 km/s
True Right ascension
06h 14m 59s
True Declination
0° 00' 00"
Sunlit
Object was in daylight at epoch
Visualization orbit readout
Latitude
Unknown
Longitude
Unknown
Altitude
Unknown
Speed
Unknown
Apparent Right ascension
Unknown
Apparent Declination
Unknown
Sunlit
N/A
Visualization observer readout
Local Sidereal Time
23:07:46
Azimuth
Unknown
Elevation
Unknown
Doppler factor
Unknown
Orbital elements
Apogee altitude
485.682 km
Perigee altitude
484.308 km
Semi-major axis
6,863.132 km
Eccentricity
0.0001
Inclination
43.0042°
RAAN
93.748°
Arg. of periapsis
264.1432°
True anomaly
95.94201°
Mean anomaly
95.9306°
Eccentric anomaly
95.9363°
Mean motion
3.81733 °/min
Orbital period
94.31 mins
BSTAR
0.000051515
Loading maneuver chart data...
Computing Atmospheric mass density...
Loading historical data...
Loading historical data...
Loading historical data...
Loading historical data...
Loading historical data...
Loading historical data...
Loading historical data...

Documentation

Showing up to 5 results
|